| time (UTC) | temp F | wind direction | speed MPH | gust MPH | rain 1hr in | rain 24hr in | rain mn in | humidity % | barometer mb |
| 20260505140202 | 63 | 239 | 5.0 | 12.0 | 0.00 | 0.04 | 0.04 | 71 | 1002.7 |
| 20260505130202 | 62 | 276 | 6.0 | 14.0 | 0.00 | 0.04 | 0.04 | 72 | 1002.2 |
| 20260505124202 | 64 | 249 | 4.0 | 10.0 | 0.00 | 0.04 | 0.04 | 70 | 1001.6 |
| 20260505123201 | 64 | 231 | 4.0 | 11.0 | 0.00 | 0.04 | 0.04 | 71 | 1001.6 |
| 20260505122203 | 64 | 240 | 5.0 | 13.0 | 0.00 | 0.04 | 0.04 | 70 | 1001.5 |
| 20260505121201 | 64 | 254 | 6.0 | 16.0 | 0.00 | 0.04 | 0.04 | 70 | 1001.5 |
| 20260505120202 | 64 | 240 | 3.0 | 11.0 | 0.00 | 0.04 | 0.04 | 72 | 1001.2 |
| 20260505115203 | 64 | 228 | 2.0 | 10.0 | 0.00 | 0.04 | 0.04 | 71 | 1001.0 |
| 20260505114203 | 64 | 225 | 4.0 | 8.0 | 0.00 | 0.04 | 0.04 | 71 | 1000.9 |
| 20260505113203 | 64 | 236 | 4.0 | 10.0 | 0.00 | 0.04 | 0.04 | 72 | 1000.9 |
| 20260505112201 | 63 | 230 | 3.0 | 10.0 | 0.00 | 0.04 | 0.04 | 73 | 1000.9 |
| 20260505111202 | 63 | 227 | 3.0 | 11.0 | 0.00 | 0.04 | 0.04 | 74 | 1000.8 |
| 20260505110203 | 62 | 212 | 3.0 | 6.0 | 0.00 | 0.04 | 0.04 | 76 | 1000.6 |
| 20260505102202 | 60 | 174 | 3.0 | 5.0 | 0.00 | 0.04 | 0.04 | 83 | 1000.0 |
| 20260505101202 | 59 | 215 | 3.0 | 10.0 | 0.00 | 0.04 | 0.04 | 85 | 1000.0 |
| 20260505100203 | 58 | 218 | 2.0 | 5.0 | 0.00 | 0.04 | 0.04 | 88 | 1000.0 |
| 20260505095202 | 57 | 236 | 1.0 | 4.0 | 0.00 | 0.04 | 0.04 | 89 | 1000.0 |
| 20260505094202 | 57 | 172 | 0.0 | 0.0 | 0.00 | 0.04 | 0.04 | 90 | 1000.0 |
| 20260505093224 | 56 | 171 | 0.0 | 0.0 | 0.00 | 0.04 | 0.04 | 90 | 999.9 |
| 20260505092223 | 56 | 171 | 0.0 | 0.0 | 0.00 | 0.04 | 0.04 | 90 | 999.9 |
| 20260505091225 | 56 | 171 | 0.0 | 0.0 | 0.00 | 0.04 | 0.04 | 91 | 999.8 |
| 20260505090223 | 55 | 171 | 0.0 | 2.0 | 0.00 | 0.04 | 0.04 | 91 | 999.8 |
| 20260505085201 | 55 | 171 | 0.0 | 4.0 | 0.00 | 0.04 | 0.04 | 91 | 999.9 |
| 20260505084202 | 55 | 196 | 0.0 | 2.0 | 0.00 | 0.04 | 0.04 | 91 | 999.9 |
| 20260505083202 | 55 | 197 | 0.0 | 2.0 | 0.00 | 0.04 | 0.04 | 91 | 1000.1 |
| 20260505082223 | 54 | 197 | 0.0 | 0.0 | 0.00 | 0.04 | 0.04 | 91 | 1000.0 |
| 20260505081203 | 54 | 198 | 0.0 | 2.0 | 0.00 | 0.04 | 0.04 | 90 | 1000.3 |
| 20260505080202 | 54 | 198 | 0.0 | 0.0 | 0.00 | 0.04 | 0.04 | 90 | 1000.4 |
| 20260505075202 | 54 | 198 | 0.0 | 2.0 | 0.00 | 0.04 | 0.04 | 90 | 1000.4 |
| 20260505074202 | 54 | 197 | 0.0 | 3.0 | 0.00 | 0.04 | 0.04 | 90 | 1000.5 |
| 20260505073204 | 54 | 197 | 1.0 | 3.0 | 0.00 | 0.04 | 0.04 | 90 | 1000.6 |
| 20260505072203 | 54 | 197 | 1.0 | 3.0 | 0.00 | 0.04 | 0.04 | 90 | 1000.7 |
| 20260505071202 | 55 | 197 | 1.0 | 4.0 | 0.00 | 0.04 | 0.04 | 89 | 1000.8 |
| 20260505070202 | 55 | 197 | 1.0 | 3.0 | 0.00 | 0.04 | 0.04 | 89 | 1001.0 |
| 20260505065203 | 55 | 196 | 2.0 | 4.0 | 0.01 | 0.04 | 0.04 | 89 | 1001.0 |
| 20260505064201 | 56 | 196 | 2.0 | 5.0 | 0.01 | 0.04 | 0.04 | 88 | 1001.3 |
| 20260505063202 | 56 | 197 | 2.0 | 6.0 | 0.01 | 0.04 | 0.04 | 88 | 1001.8 |
| 20260505062203 | 56 | 233 | 1.0 | 3.0 | 0.01 | 0.04 | 0.04 | 87 | 1001.7 |
| 20260505061203 | 56 | 233 | 1.0 | 8.0 | 0.01 | 0.04 | 0.04 | 86 | 1002.0 |
| 20260505060204 | 57 | 233 | 1.0 | 9.0 | 0.00 | 0.03 | 0.03 | 84 | 1001.9 |
| 20260505055203 | 59 | 226 | 4.0 | 9.0 | 0.03 | 0.03 | 0.03 | 82 | 1002.1 |
| 20260505054201 | 60 | 239 | 5.0 | 15.0 | 0.01 | 0.01 | 0.01 | 78 | 1002.0 |
| 20260505053202 | 60 | 232 | 4.0 | 12.0 | 0.00 | 0.00 | 0.00 | 75 | 1002.0 |
| 20260505052202 | 61 | 226 | 4.0 | 8.0 | 0.00 | 0.00 | 0.00 | 73 | 1001.9 |
| 20260505051202 | 62 | 228 | 5.0 | 14.0 | 0.00 | 0.00 | 0.00 | 72 | 1001.8 |
| 20260505041202 | 63 | 227 | 2.0 | 8.0 | 0.00 | 0.00 | 0.00 | 71 | 1001.7 |
| 20260505040201 | 62 | 217 | 5.0 | 11.0 | 0.00 | 0.00 | 0.00 | 73 | 1001.5 |
| 20260505035203 | 60 | 229 | 3.0 | 5.0 | 0.00 | 0.00 | 0.00 | 75 | 1001.5 |
| 20260505034201 | 59 | 245 | 1.0 | 3.0 | 0.00 | 0.00 | 0.00 | 74 | 1001.4 |
| 20260505033202 | 60 | 245 | 0.0 | 2.0 | 0.00 | 0.00 | 0.00 | 73 | 1001.5 |
| 20260505032204 | 60 | 198 | 0.0 | 3.0 | 0.00 | 0.00 | 0.00 | 72 | 1001.6 |
| 20260505031202 | 60 | 198 | 1.0 | 5.0 | 0.00 | 0.00 | 0.00 | 73 | 1001.8 |
| 20260505030203 | 60 | 226 | 1.0 | 2.0 | 0.00 | 0.00 | 0.00 | 73 | 1002.0 |
| 20260505025224 | 60 | 226 | 1.0 | 3.0 | 0.00 | 0.00 | 0.00 | 74 | 1002.0 |
| 20260505024201 | 59 | 226 | 1.0 | 4.0 | 0.00 | 0.00 | 0.00 | 75 | 1002.1 |
| 20260505023202 | 58 | 286 | 0.0 | 2.0 | 0.00 | 0.00 | 0.00 | 74 | 1002.2 |
| 20260505022202 | 58 | 286 | 0.0 | 8.0 | 0.00 | 0.00 | 0.00 | 73 | 1002.0 |
| 20260505021204 | 57 | 190 | 2.0 | 6.0 | 0.00 | 0.00 | 0.00 | 71 | 1002.3 |
| 20260505020202 | 58 | 240 | 0.0 | 1.0 | 0.00 | 0.00 | 0.00 | 64 | 1002.5 |
| 20260505015202 | 59 | 241 | 0.0 | 0.0 | 0.00 | 0.00 | 0.00 | 62 | 1002.0 |
| 20260505014202 | 59 | 241 | 0.0 | 2.0 | 0.00 | 0.00 | 0.00 | 62 | 1002.0 |
| 20260505013202 | 60 | 240 | 0.0 | 4.0 | 0.00 | 0.00 | 0.00 | 59 | 1002.1 |
| 20260505012202 | 61 | 248 | 1.0 | 3.0 | 0.00 | 0.00 | 0.00 | 59 | 1002.2 |
| 20260505011202 | 61 | 249 | 0.0 | 2.0 | 0.00 | 0.00 | 0.00 | 57 | 1002.1 |
| 20260505010202 | 62 | 249 | 1.0 | 3.0 | 0.00 | 0.00 | 0.00 | 56 | 1002.0 |
| 20260505005202 | 63 | 249 | 1.0 | 3.0 | 0.00 | 0.00 | 0.00 | 54 | 1001.9 |
| 20260505004205 | 64 | 249 | 1.0 | 3.0 | 0.00 | 0.00 | 0.00 | 52 | 1001.9 |
| 20260505003204 | 65 | 249 | 2.0 | 3.0 | 0.00 | 0.00 | 0.00 | 51 | 1001.9 |
| 20260505002202 | 66 | 249 | 1.0 | 3.0 | 0.00 | 0.00 | 0.00 | 49 | 1002.0 |
| 20260505001201 | 66 | 243 | 2.0 | 4.0 | 0.00 | 0.00 | 0.00 | 47 | 1001.9 |
| 20260505000204 | 67 | 243 | 2.0 | 9.0 | 0.00 | 0.00 | 0.00 | 48 | 1002.0 |
| 20260504235203 | 67 | 227 | 2.0 | 11.0 | 0.00 | 0.00 | 0.00 | 47 | 1002.0 |
| 20260504234246 | 68 | 236 | 2.0 | 6.0 | 0.00 | 0.00 | 0.00 | 47 | 1002.0 |
| 20260504233202 | 68 | 242 | 2.0 | 9.0 | 0.00 | 0.00 | 0.00 | 46 | 1001.9 |
| 20260504232204 | 69 | 261 | 4.0 | 11.0 | 0.00 | 0.00 | 0.00 | 50 | 1002.0 |
| 20260504231203 | 69 | 277 | 6.0 | 13.0 | 0.00 | 0.00 | 0.00 | 48 | 1002.1 |
| 20260504230203 | 69 | 245 | 3.0 | 12.0 | 0.00 | 0.00 | 0.00 | 49 | 1002.2 |
| 20260504225201 | 69 | 233 | 3.0 | 12.0 | 0.00 | 0.00 | 0.00 | 49 | 1002.2 |
| 20260504224203 | 69 | 270 | 4.0 | 11.0 | 0.00 | 0.00 | 0.00 | 48 | 1002.3 |
| 20260504223225 | 70 | 274 | 4.0 | 16.0 | 0.00 | 0.00 | 0.00 | 48 | 1002.2 |
| 20260504222201 | 70 | 300 | 3.0 | 12.0 | 0.00 | 0.00 | 0.00 | 48 | 1002.2 |
| 20260504221204 | 70 | 263 | 5.0 | 18.0 | 0.00 | 0.00 | 0.00 | 44 | 1002.3 |
| 20260504220223 | 71 | 248 | 4.0 | 13.0 | 0.00 | 0.00 | 0.00 | 44 | 1002.1 |
| 20260504215203 | 71 | 252 | 3.0 | 11.0 | 0.00 | 0.00 | 0.00 | 44 | 1002.2 |
| 20260504214202 | 71 | 284 | 5.0 | 19.0 | 0.00 | 0.00 | 0.00 | 42 | 1002.2 |
| 20260504213203 | 71 | 253 | 3.0 | 16.0 | 0.00 | 0.00 | 0.00 | 45 | 1002.1 |
| 20260504212201 | 71 | 268 | 5.0 | 14.0 | 0.00 | 0.00 | 0.00 | 44 | 1002.1 |
| 20260504211202 | 70 | 276 | 5.0 | 14.0 | 0.00 | 0.00 | 0.00 | 48 | 1002.2 |
| 20260504210202 | 70 | 227 | 3.0 | 10.0 | 0.00 | 0.00 | 0.00 | 50 | 1002.4 |
| 20260504205202 | 70 | 218 | 3.0 | 14.0 | 0.00 | 0.00 | 0.00 | 49 | 1002.4 |
| 20260504204201 | 70 | 234 | 4.0 | 11.0 | 0.00 | 0.00 | 0.00 | 49 | 1002.7 |
| 20260504203223 | 70 | 224 | 3.0 | 12.0 | 0.00 | 0.00 | 0.00 | 49 | 1002.7 |
| 20260504202202 | 71 | 255 | 4.0 | 10.0 | 0.00 | 0.00 | 0.00 | 50 | 1002.8 |
| 20260504201202 | 71 | 217 | 5.0 | 9.0 | 0.00 | 0.00 | 0.00 | 47 | 1002.9 |
| 20260504200202 | 71 | 238 | 3.0 | 11.0 | 0.00 | 0.00 | 0.00 | 48 | 1002.9 |
| 20260504195202 | 72 | 255 | 3.0 | 12.0 | 0.00 | 0.00 | 0.00 | 51 | 1003.0 |
| 20260504194202 | 71 | 232 | 4.0 | 12.0 | 0.00 | 0.00 | 0.00 | 50 | 1003.0 |
| 20260504193203 | 71 | 215 | 4.0 | 10.0 | 0.00 | 0.00 | 0.00 | 51 | 1003.5 |
| 20260504192203 | 71 | 230 | 3.0 | 12.0 | 0.00 | 0.00 | 0.00 | 50 | 1003.5 |
| 20260504191202 | 72 | 203 | 4.0 | 14.0 | 0.00 | 0.00 | 0.00 | 49 | 1003.6 |
| 20260504190202 | 71 | 250 | 5.0 | 19.0 | 0.00 | 0.00 | 0.00 | 49 | 1003.7 |
| 20260504185202 | 70 | 225 | 4.0 | 11.0 | 0.00 | 0.00 | 0.00 | 51 | 1003.9 |
| 20260504184202 | 70 | 246 | 7.0 | 11.0 | 0.00 | 0.00 | 0.00 | 52 | 1004.0 |
| 20260504183202 | 70 | 240 | 6.0 | 14.0 | 0.00 | 0.00 | 0.00 | 52 | 1004.2 |
| 20260504182202 | 70 | 213 | 4.0 | 9.0 | 0.00 | 0.00 | 0.00 | 54 | 1004.3 |
| 20260504181202 | 69 | 234 | 4.0 | 11.0 | 0.00 | 0.00 | 0.00 | 54 | 1004.5 |
| 20260504180202 | 68 | 226 | 6.0 | 15.0 | 0.00 | 0.00 | 0.00 | 55 | 1004.6 |
| 20260504175202 | 68 | 236 | 5.0 | 15.0 | 0.00 | 0.00 | 0.00 | 53 | 1004.8 |
| 20260504174202 | 68 | 215 | 5.0 | 9.0 | 0.00 | 0.00 | 0.00 | 56 | 1004.9 |
| 20260504173202 | 67 | 252 | 4.0 | 20.0 | 0.00 | 0.00 | 0.00 | 57 | 1005.0 |
| 20260504172202 | 66 | 224 | 3.0 | 16.0 | 0.00 | 0.00 | 0.00 | 56 | 1005.1 |
| 20260504171202 | 66 | 247 | 6.0 | 11.0 | 0.00 | 0.00 | 0.00 | 57 | 1005.2 |
| 20260504170202 | 65 | 241 | 4.0 | 16.0 | 0.00 | 0.00 | 0.00 | 59 | 1005.2 |
| 20260504160202 | 63 | 229 | 5.0 | 14.0 | 0.00 | 0.00 | 0.00 | 58 | 1006.0 |
| 20260504150203 | 61 | 227 | 7.0 | 15.0 | 0.00 | 0.00 | 0.00 | 58 | 1006.2 |